Regional Weather Roundup
Issued by NWS

Home | Current Version | Previous Version | Graphics & Text | Print | Product List | Glossary On
Versions: 1 2 3 4 5 6 7 8 9 10 11 12 13 14 15 16 17 18 19 20 21 22 23 24 25 26 27 28 29 30 31 32 33 34 35 36 37 38 39 40 41 42 43 44 45 46 47 48 49 50
000
ASUS45 KBOI 230410
RWRID

IDAHO REGIONAL WEATHER ROUNDUP
NATIONAL WEATHER SERVICE BOISE ID
1000 PM MDT THU JUN 22 2017

NOTE: "FAIR" INDICATES FEW OR NO CLOUDS BELOW 12000 FEET
WITH NO SIGNIFICANT WEATHER AND/OR OBSTRUCTIONS TO VISIBILITY

IDZ012-014-230500-
SOUTHWEST IDAHO


CITY           SKY/WX    TMP DP  RH WIND       PRES   REMARKS
BOISE          CLEAR     73  30  20 N10       30.07S
CALDWELL       CLEAR     70  38  31 W9        30.08R
MOUNTAIN HOME  CLEAR     70  32  24 W8        30.07R
$$

IDZ016-017-230500-
SOUTHCENTRAL IDAHO


CITY           SKY/WX    TMP DP  RH WIND       PRES   REMARKS
BURLEY         CLEAR     66  29  24 W20G28    30.06R
JEROME         CLEAR     66  30  26 SW9       30.09R
TWIN FALLS     CLEAR     63  26  24 SW10      30.10R
$$

IDZ019>023-230500-
SOUTHEAST IDAHO


CITY           SKY/WX    TMP DP  RH WIND       PRES   REMARKS
IDAHO FALLS    CLEAR     61  42  49 N10       30.11R
POCATELLO      CLEAR     67  29  24 SW13      30.09R
REXBURG        CLEAR     64  34  32 N7        30.12R
$$

IDZ006-010-011-018-031-032-230500-
CENTRAL IDAHO MOUNTAINS


CITY           SKY/WX    TMP DP  RH WIND       PRES   REMARKS
MCCALL         CLEAR     59  27  29 N14       30.23R
HAILEY         CLEAR     72  28  20 NW7       30.11R
STANLEY          N/A     53  29  39 CALM      30.25R
SALMON         CLEAR     59  28  31 NE7       30.17R
CHALLIS        CLEAR     58  25  28 N8        30.18R
$$

IDZ002-004-006-007-026-230500-
NORTHERN IDAHO


CITY           SKY/WX    TMP DP  RH WIND       PRES   REMARKS
LEWISTON       CLEAR     72  34  24 E3        30.16S
LOWELL           N/A     58  46  64 CALM      30.20R
COEUR D`ALENE  CLEAR     62  44  51 W3        30.20R
MULLAN PASS    CLEAR     48  28  46 NW5       30.30S
$$



USA.gov is the U.S. government's official web portal to all federal, state and local government web resources and services.